Waarnemingen

Advertentie
Mijn weer
Badajoz/Talavera La Real, Spanje (8330): temperatuur & dauwpunt: 15.07.2018 21:00:00 - 21.07.2018 21:00:00 (CEST)Badajoz/Talavera La Real, Spanje (8330): windsnelheid: 15.07.2018 21:00:00 - 21.07.2018 21:00:00 (CEST)Badajoz/Talavera La Real, Spanje (8330): windrichting: 15.07.2018 21:00:00 - 21.07.2018 21:00:00 (CEST)Badajoz/Talavera La Real, Spanje (8330): luchtdruk: 15.07.2018 21:00:00 - 21.07.2018 21:00:00 (CEST)Badajoz/Talavera La Real, Spanje (8330): zicht: 15.07.2018 21:00:00 - 21.07.2018 21:00:00 (CEST)Badajoz/Talavera La Real, Spanje (8330): neerslag: 15.07.2018 21:00:00 - 21.07.2018 21:00:00 (CEST)
Datum & Tijd tt [°C] td [°C] ff [km/u] ff [kn] dd ppp [hPa] vv [km] rr [mm]
21.07.2018 21:00:00 30,3 10,8 13 7 W 1011,0 - 0,0
21.07.2018 20:00:00 32,5 8,0 16 9 WNW 1010,7 40 -
21.07.2018 19:00:00 33,0 7,8 15 8 W 1011,0 - 0,0
21.07.2018 18:00:00 33,2 10,5 16 9 WNW 1011,5 - 0,0
21.07.2018 17:00:00 32,8 11,3 15 8 NW 1011,8 45 -
21.07.2018 16:00:00 32,0 12,3 13 7 WNW 1012,7 - 0,0
21.07.2018 15:00:00 31,0 12,8 11 6 NW 1013,6 - 0,0
21.07.2018 14:00:00 29,1 14,1 8 4 W 1014,5 45 -
21.07.2018 13:00:00 27,0 13,4 8 4 WNW 1015,3 - 0,0
21.07.2018 12:00:00 25,0 13,5 9 5 WNW 1015,7 - 0,0
21.07.2018 11:00:00 23,0 14,6 9 5 W 1015,8 - -
21.07.2018 10:00:00 20,3 14,4 5 3 W 1016,1 - 0,0
21.07.2018 09:00:00 18,1 14,0 9 5 W 1016,1 - 0,0
21.07.2018 08:00:00 16,3 13,4 5 3 ZW 1015,8 45 -
21.07.2018 07:00:00 16,1 13,4 5 3 WZW 1015,7 - 0,0
21.07.2018 06:00:00 16,6 13,3 9 5 WZW 1015,6 - 0,0
21.07.2018 05:00:00 17,3 13,6 9 5 WZW 1015,4 - -
21.07.2018 04:00:00 18,0 13,9 8 4 WZW 1015,4 - 0,0
21.07.2018 03:00:00 18,9 14,0 8 4 WZW 1015,7 - 0,0
21.07.2018 02:00:00 19,9 14,0 9 5 W 1016,0 - -
21.07.2018 01:00:00 20,7 13,9 11 6 W 1016,2 - 0,0
21.07.2018 00:00:00 22,0 13,9 11 6 W 1015,7 - 0,0
20.07.2018 23:00:00 23,6 13,5 18 10 W 1015,0 - -
20.07.2018 22:00:00 25,8 11,5 15 8 W 1013,9 - 0,0
20.07.2018 21:00:00 28,3 12,2 18 10 W 1013,2 - 0,0
20.07.2018 20:00:00 30,4 11,4 21 11 W 1012,8 45 -
20.07.2018 19:00:00 31,9 11,7 18 10 W 1012,8 - 0,0
20.07.2018 18:00:00 32,3 10,9 21 11 WNW 1012,8 - 0,0
20.07.2018 17:00:00 32,5 12,7 15 8 W 1013,3 50 -
20.07.2018 16:00:00 31,6 13,4 15 8 W 1013,7 - 0,0
20.07.2018 15:00:00 30,5 13,7 15 8 W 1014,3 - 0,0
20.07.2018 14:00:00 28,9 14,7 15 8 W 1015,0 35 -
20.07.2018 13:00:00 26,8 15,5 11 6 W 1015,7 - 0,0
20.07.2018 12:00:00 24,9 15,5 13 7 WNW 1016,1 - 0,0
20.07.2018 11:00:00 22,9 15,5 11 6 WNW 1016,4 30 -
20.07.2018 10:00:00 21,2 15,9 13 7 W 1016,8 - 0,0
20.07.2018 09:00:00 20,0 15,6 9 5 W 1016,5 - 0,0
20.07.2018 08:00:00 18,3 15,4 9 5 W 1016,1 25 -
20.07.2018 07:00:00 17,8 15,2 9 5 W 1015,9 - 0,0
20.07.2018 06:00:00 17,9 15,2 5 3 W 1015,7 - 0,0
20.07.2018 05:00:00 18,6 15,5 8 4 W 1016,1 - -
20.07.2018 04:00:00 18,8 15,5 13 7 W 1015,9 - 0,0
20.07.2018 03:00:00 19,0 15,7 9 5 W 1016,3 - 0,0
20.07.2018 02:00:00 19,5 15,6 13 7 W 1016,2 - -
20.07.2018 01:00:00 20,3 14,9 11 6 W 1016,3 - 0,0
20.07.2018 00:00:00 21,6 14,0 18 10 WNW 1016,0 - 0,0
19.07.2018 23:00:00 23,4 12,7 15 8 W 1015,7 - -
19.07.2018 22:00:00 25,5 11,6 13 7 W 1014,8 - 0,0
19.07.2018 21:00:00 27,9 11,0 16 9 W 1014,1 - 0,0
19.07.2018 20:00:00 30,1 10,6 16 9 W 1013,6 30 -
19.07.2018 19:00:00 31,4 9,6 13 7 W 1013,7 - 0,0
19.07.2018 18:00:00 31,2 10,0 15 8 WNW 1013,8 - 0,0
19.07.2018 17:00:00 30,9 10,3 15 8 W 1014,2 25 -
19.07.2018 16:00:00 29,1 12,1 15 8 NW 1014,7 - 0,0
19.07.2018 15:00:00 27,9 11,4 16 9 WNW 1015,4 - 0,0
19.07.2018 14:00:00 26,7 12,7 11 6 W 1016,0 20 -
19.07.2018 13:00:00 24,8 12,7 11 6 W 1016,5 - 0,0
19.07.2018 12:00:00 23,2 12,8 11 6 W 1016,8 - 0,0
19.07.2018 11:00:00 21,1 13,5 9 5 W 1017,0 15 -
19.07.2018 10:00:00 19,9 13,8 8 4 W 1017,0 - 0,0
19.07.2018 09:00:00 17,9 14,0 8 4 W 1017,0 - 0,0
19.07.2018 08:00:00 15,4 13,1 4 2 WZW 1017,0 10 -
19.07.2018 07:00:00 15,2 13,0 5 3 WZW 1016,7 - 0,0
19.07.2018 06:00:00 15,9 13,7 5 3 WZW 1016,4 - 0,0
19.07.2018 05:00:00 16,6 13,9 8 4 W 1016,5 - -
19.07.2018 04:00:00 17,2 13,9 9 5 WZW 1016,5 - 0,0
19.07.2018 03:00:00 17,9 13,8 8 4 W 1016,4 - 0,0
19.07.2018 02:00:00 18,3 14,0 13 7 W 1015,9 - -
19.07.2018 01:00:00 19,7 14,3 15 8 W 1015,6 - 0,0
19.07.2018 00:00:00 21,5 13,9 16 9 WNW 1015,2 - 0,0
18.07.2018 23:00:00 23,7 13,8 16 9 W 1014,6 - -
18.07.2018 22:00:00 25,5 12,7 11 6 W 1013,7 - 0,0
18.07.2018 21:00:00 28,3 11,8 18 10 WNW 1013,2 - 0,0
18.07.2018 20:00:00 30,8 10,7 13 7 WNW 1012,8 75 -
18.07.2018 19:00:00 32,0 10,7 9 5 W 1012,8 - 0,0
18.07.2018 18:00:00 32,4 8,6 11 6 W 1013,0 - 0,0
18.07.2018 17:00:00 32,1 10,7 13 7 W 1013,2 75 -
18.07.2018 16:00:00 30,8 12,2 8 4 ZW 1013,9 - 0,0
18.07.2018 15:00:00 29,5 11,5 9 5 WZW 1014,4 - 0,0
18.07.2018 14:00:00 27,8 12,6 11 6 W 1014,9 75 -
18.07.2018 13:00:00 26,0 13,8 13 7 W 1015,3 - 0,0
18.07.2018 12:00:00 24,2 14,6 9 5 WZW 1015,6 - 0,0
18.07.2018 11:00:00 21,9 14,8 8 4 WZW 1015,8 40 -
18.07.2018 10:00:00 19,9 14,5 8 4 W 1016,0 - 0,0
18.07.2018 09:00:00 18,2 14,7 5 3 WZW 1015,7 - 0,0
18.07.2018 08:00:00 16,4 14,2 8 4 W 1015,2 20 -
18.07.2018 07:00:00 16,4 14,1 8 4 W 1014,7 - 0,0
18.07.2018 06:00:00 17,6 14,5 5 3 WZW 1014,0 - 0,0
18.07.2018 05:00:00 18,7 14,8 8 4 W 1013,7 - -
18.07.2018 04:00:00 20,3 15,3 5 3 WZW 1013,5 - 0,0
18.07.2018 03:00:00 21,5 15,1 8 4 W 1013,1 - 0,0
18.07.2018 02:00:00 22,8 15,4 9 5 W 1012,7 - -
18.07.2018 01:00:00 23,5 15,3 9 5 W 1012,6 - 0,0
18.07.2018 00:00:00 25,0 15,6 15 8 W 1012,0 - 0,0
17.07.2018 23:00:00 27,3 16,3 16 9 W 1011,0 - -
17.07.2018 22:00:00 30,9 12,3 9 5 W 1009,8 - 0,0
17.07.2018 21:00:00 33,6 9,6 5 3 W 1009,4 - 0,0
17.07.2018 20:00:00 34,3 8,8 11 6 NNW 1009,6 50 -
17.07.2018 19:00:00 34,6 8,4 15 8 NNW 1010,0 - 0,0
17.07.2018 18:00:00 34,3 8,8 11 6 NNW 1010,8 - 0,0
17.07.2018 17:00:00 34,0 7,1 13 7 NW 1011,8 50 -
17.07.2018 16:00:00 33,4 9,4 11 6 WNW 1012,4 - 0,0
17.07.2018 15:00:00 32,7 9,5 13 7 NNW 1013,1 - 0,0
17.07.2018 14:00:00 31,0 13,3 8 4 NNW 1014,1 50 -
17.07.2018 13:00:00 28,6 15,8 5 3 NW 1014,8 - 0,0
17.07.2018 12:00:00 26,3 15,0 4 2 W 1015,5 - 0,0
17.07.2018 11:00:00 23,4 14,9 4 2 W 1015,9 45 -
17.07.2018 10:00:00 21,2 14,6 8 4 WNW 1016,4 - 0,0
17.07.2018 09:00:00 18,9 14,4 9 5 WNW 1016,6 - 0,0
17.07.2018 08:00:00 17,7 14,2 8 4 WZW 1016,5 45 -
17.07.2018 07:00:00 17,4 14,1 8 4 W 1016,6 - 0,0
17.07.2018 06:00:00 17,5 14,2 8 4 W 1016,6 - 0,0
17.07.2018 05:00:00 17,8 14,3 9 5 W 1016,7 - -
17.07.2018 04:00:00 18,6 14,5 9 5 W 1017,0 - 0,0
17.07.2018 03:00:00 20,3 14,2 8 4 W 1017,3 - 0,0
17.07.2018 02:00:00 20,7 14,8 11 6 W 1017,3 - -
17.07.2018 01:00:00 22,3 15,2 13 7 W 1017,3 - 0,0
17.07.2018 00:00:00 23,6 14,3 13 7 W 1017,2 - 0,0
16.07.2018 23:00:00 25,0 14,8 11 6 W 1016,8 - -
16.07.2018 22:00:00 26,7 14,1 15 8 WNW 1016,2 - 0,0
16.07.2018 21:00:00 30,5 12,4 11 6 W 1015,6 - 0,0
16.07.2018 20:00:00 32,0 12,3 8 4 WZW 1015,5 45 -
16.07.2018 19:00:00 31,8 11,6 5 3 WZW 1016,0 - 0,0
16.07.2018 18:00:00 31,4 11,7 9 5 W 1016,5 - 0,0
16.07.2018 17:00:00 30,5 11,0 8 4 WZW 1017,4 40 -
16.07.2018 16:00:00 29,3 11,4 8 4 ZW 1018,1 - 0,0
16.07.2018 15:00:00 28,2 11,7 5 3 ZW 1018,9 - 0,0
16.07.2018 14:00:00 26,4 12,5 8 4 WNW 1019,6 40 -
16.07.2018 13:00:00 24,6 13,5 9 5 NW 1020,4 - 0,0
16.07.2018 12:00:00 22,9 14,5 9 5 WNW 1020,7 - 0,0
16.07.2018 11:00:00 21,1 14,7 9 5 W 1020,8 35 -
16.07.2018 10:00:00 19,8 14,4 11 6 W 1020,9 - 0,0
16.07.2018 09:00:00 18,9 14,8 11 6 W 1020,7 - 0,0
16.07.2018 08:00:00 17,4 14,9 9 5 W 1020,8 25 -
16.07.2018 07:00:00 17,0 15,0 9 5 W 1020,5 - 0,0
16.07.2018 06:00:00 16,6 14,8 4 2 ZW 1020,3 - 0,0
16.07.2018 05:00:00 17,1 14,9 4 2 WZW 1020,2 - -
16.07.2018 04:00:00 17,7 15,1 4 2 WZW 1020,3 - 0,0
16.07.2018 03:00:00 18,5 15,4 8 4 WZW 1020,4 - 0,0
16.07.2018 02:00:00 19,3 15,4 9 5 W 1020,4 - -
16.07.2018 01:00:00 20,3 15,3 9 5 WZW 1020,3 - 0,0
16.07.2018 00:00:00 21,1 15,0 13 7 WZW 1019,8 - 0,0
15.07.2018 23:00:00 21,3 14,7 11 6 WZW 1019,2 - -
15.07.2018 22:00:00 21,6 15,7 9 5 W 1018,2 - 0,0
15.07.2018 21:00:00 22,8 16,3 13 7 WNW 1017,3 - 0,0

tt = temperatuur
td = dauwpunt
ff = windsnelheid
dd = windrichting
ppp = luchtdruk
vv = zicht
rr = neerslag

Weerstations in de omgeving